[[{"header":{"parameterUnit":"m.s-1","parameterCategory":1,"la1":30.2991,"la2":30.254,"lo1":-89.0895,"lo2":-89.0444,"dx":0.0017,"dy":0.0017,"nx":28,"ny":28,"refTime":"2022-11-13T15:00:00:Z","depth":0,"parameterNumber":2,"parameterNumberName":"U-component_of_WINDS"},"data":[0,0,0,0,0,0,0,0,0,0,0,0,0,0,0,0,0,0,0,0,0,0,0,0,0,0,0,0,0,0,0,0,0,0,0,0,0,0,0,0,0,0,0,0,0,0,0,0,0,0,0,0,0,0,0,0,0,0,-5.5984,-5.5985,0,-5.6079,-5.608,-5.6081,-5.6106,-5.6106,-5.6105,-5.6104,-5.6196,-5.6199,-5.6202,0,0,0,0,0,0,0,0,0,0,0,0,0,-5.5818,-5.5821,-5.5984,-5.5985,-5.5986,-5.6079,-5.608,-5.6082,-5.6106,-5.6105,-5.6105,-5.6104,-5.6195,-5.6199,-5.6202,0,0,0,0,0,0,0,0,0,0,0,0,0,-5.5899,-5.5821,-5.5984,-5.601,-5.6013,-5.6079,-5.608,-5.6082,-5.6106,-5.6105,-5.6105,-5.6104,-5.6194,-5.6199,-5.6203,-5.6247,0,0,-5.6217,-5.6219,0,0,0,0,0,0,0,0,-5.5894,-5.5905,-5.6005,-5.6008,-5.6012,-5.608,-5.6055,-5.6137,-5.6107,-5.6071,-5.6104,-5.6103,-5.6158,-5.6165,-5.6185,-5.6252,-5.6256,-5.6217,-5.622,-5.6222,-5.6223,0,0,0,0,0,0,0,-5.5889,-5.5901,-5.6022,-5.6006,-5.6011,-5.6015,-5.6026,-5.6071,-5.6118,-5.6074,-5.6076,-5.6087,-5.616,-5.618,-5.6187,-5.6257,-5.6217,-5.6221,-5.6224,-5.6225,-5.6362,-5.6363,0,0,0,0,0,0,-5.5879,-5.5896,-5.6018,-5.6024,-5.595,-5.6019,-5.603,-5.6059,-5.6117,-5.6126,-5.6088,-5.6088,-5.6173,-5.6182,-5.619,-5.6245,-5.6222,-5.6226,-5.6228,-5.6361,-5.6362,-5.6364,0,0,0,0,0,0,-5.5876,-5.589,-5.6015,-5.5961,-5.5977,-5.6022,-5.6054,-5.6061,-5.6082,-5.6128,-5.6136,-5.6101,-5.6173,-5.6184,-5.6233,-5.6248,-5.6228,-5.6232,-5.636,-5.6362,-5.6363,-5.6354,0,0,0,0,0,0,-5.5871,-5.5888,-5.5907,-5.5961,-5.598,-5.6057,-5.6055,-5.6064,-5.609,-5.6092,-5.6142,-5.615,-5.6173,-5.6226,-5.6237,-5.6254,-5.6235,-5.6359,-5.6361,-5.6363,-5.6353,-5.6355,-5.6357,0,0,0,0,0,-5.5865,-5.5901,-5.5908,-5.5923,-5.6005,-5.6058,-5.6069,-5.6096,-5.6092,-5.611,-5.6139,-5.6148,-5.6245,-5.6231,-5.6244,-5.6262,-5.6358,-5.636,-5.6362,-5.6353,-5.6355,-5.6357,0,0,0,0,0,0,-5.5846,-5.5908,-5.5917,-5.5972,-5.601,-5.6062,-5.6086,-5.6098,-5.6137,-5.6136,-5.6167,-5.6178,-5.6224,-5.6248,-5.6231,-5.6307,-5.6301,-5.6306,-5.6289,-5.6292,-5.6294,-5.6286,-5.6239,0,0,0,0,0,-5.5849,-5.5889,-5.594,-5.5983,-5.6002,-5.6041,-5.6065,-5.6083,-5.6123,-5.6138,-5.6171,-5.6207,-5.6246,-5.627,-5.6309,-5.6357,-5.6367,-5.6376,-5.6378,-5.6379,-5.6382,-5.6407,-5.6411,-5.6371,-5.6371,-5.6371,0,0,-5.5854,-5.5893,-5.5916,-5.5981,-5.6012,-5.605,-5.6054,-5.6095,-5.6123,-5.6144,-5.6192,-5.6217,-5.6259,-5.6308,-5.6331,-5.6329,-5.6396,-5.6382,-5.6382,-5.6385,-5.641,-5.6414,-5.6417,-5.6372,-5.6372,-5.6372,0,0,-5.5883,-5.5917,-5.5956,-5.5987,-5.6035,-5.6061,-5.607,-5.612,-5.6138,-5.6187,-5.6203,-5.6236,-5.6302,-5.6331,-5.6354,-5.6393,-5.6402,-5.6404,-5.6412,-5.6437,-5.644,-5.6443,-5.6454,-5.6459,-5.6407,-5.6407,-5.6407,0,-5.5882,-5.5943,-5.5974,-5.6014,-5.6041,-5.6063,-5.6101,-5.6129,-5.6186,-5.6203,-5.6201,-5.6283,-5.6314,-5.6368,-5.6377,-5.6396,-5.6406,-5.6398,-5.6437,-5.6441,-5.6444,-5.6455,-5.646,-5.6407,-5.6407,-5.6407,-5.6407,0,-5.5939,-5.5981,-5.6006,-5.6062,-5.6092,-5.613,-5.6165,-5.6191,-5.6206,-5.6231,-5.6279,-5.6316,-5.6361,-5.6375,-5.639,-5.6431,-5.6429,-5.6432,-5.6426,-5.6447,-5.6458,-5.6463,-5.6407,-5.6407,-5.6407,-5.6407,0,0,-5.5959,-5.6031,-5.6039,-5.6064,-5.6118,-5.6149,-5.6188,-5.6233,-5.6254,-5.6292,-5.6324,-5.6379,-5.6382,-5.6408,-5.6426,-5.6448,-5.6473,-5.6448,-5.6449,-5.645,-5.6518,-5.6514,-5.6519,-5.648,-5.6481,-5.6481,-5.6514,0,-5.5993,-5.6065,-5.6093,-5.615,-5.6188,-5.6208,-5.6241,-5.6277,-5.6301,-5.6334,-5.636,-5.6398,-5.64,-5.6415,-5.6438,-5.6465,-5.6487,-5.6463,-5.6507,-5.6508,-5.6495,-5.6525,-5.6522,-5.655,-5.6518,-5.6519,-5.652,0,-5.6043,-5.6082,-5.6143,-5.6191,-5.6208,-5.6237,-5.628,-5.6313,-5.6352,-5.6368,-5.6397,-5.6414,-5.6452,-5.6446,-5.6498,-5.6482,-5.6501,-5.6517,-5.6519,-5.6523,-5.6514,-5.6528,-5.656,-5.6564,-5.6527,-5.6527,-5.6526,0,-5.6048,-5.6117,-5.6162,-5.6182,-5.624,-5.6259,-5.6284,-5.6323,-5.6348,-5.6384,-5.64,-5.6441,-5.6463,-5.6492,-5.6519,-5.6512,-5.6568,-5.6564,-5.658,-5.6579,-5.659,-5.6589,-5.6624,-5.6605,-5.6605,-5.6605,-5.6605,0,-5.6082,-5.6118,-5.6165,-5.6192,-5.6233,-5.6264,-5.6302,-5.6328,-5.6362,-5.6393,-5.6413,-5.6441,-5.6475,-5.6507,-5.6528,-5.6567,-5.6577,-5.6589,-5.6594,-5.6587,-5.6585,-5.6599,-5.6597,-5.6606,-5.6606,-5.6606,-5.6605,0,-5.6095,-5.6128,-5.6178,-5.6228,-5.6241,-5.6268,-5.631,-5.6337,-5.6361,-5.64,-5.6411,-5.6449,-5.6488,-5.6518,-5.6568,-5.6582,-5.6623,-5.6628,-5.661,-5.6612,-5.6626,-5.6623,-5.667,-5.6677,-5.6655,-5.6655,-5.6655,0,-5.6114,-5.6142,-5.6195,-5.6218,-5.6243,-5.6279,-5.6305,-5.6336,-5.6361,-5.6408,-5.6428,-5.6468,-5.6502,-5.6563,-5.6594,-5.6632,-5.6638,-5.6652,-5.6643,-5.6635,-5.6636,-5.6633,-5.6635,-5.6652,-5.6652,-5.6652,-5.6652,0,-5.6143,-5.6157,-5.6195,-5.6237,-5.6267,-5.6302,-5.6336,-5.6354,-5.639,-5.6418,-5.6458,-5.6485,-5.6536,-5.6575,-5.6616,-5.6639,-5.6651,-5.6655,-5.666,-5.6652,-5.664,-5.6645,-5.6611,-5.6653,-5.6653,-5.6653,-5.6653,-5.6653,-5.6158,-5.6183,-5.6224,-5.6264,-5.6294,-5.6326,-5.6353,-5.6381,-5.6416,-5.6461,-5.6477,-5.6518,-5.6555,-5.6611,-5.6634,-5.6666,-5.6666,-5.6674,-5.6676,-5.6677,-5.6676,-5.6636,-5.6673,-5.6673,-5.6673,-5.6673,-5.6673,0,-5.6186,-5.6214,-5.625,-5.6299,-5.6329,-5.634,-5.6379,-5.6403,-5.644,-5.6474,-5.6507,-5.6553,-5.6591,-5.6625,-5.6663,-5.6682,-5.6688,-5.6691,-5.6689,-5.6694,-5.6674,-5.6665,-5.6685,-5.6685,-5.6685,-5.6685,-5.6685,-5.6685,-5.6205,-5.6248,-5.6267,-5.6324,-5.6351,-5.6393,-5.6413,-5.6442,-5.6469,-5.652,-5.6552,-5.6574,-5.6608,-5.6649,-5.6684,-5.6693,-5.6705,-5.6706,-5.6716,-5.6697,-5.6695,-5.6694,-5.6685,-5.6709,-5.6709,-5.6733,-5.6733,-5.6733]},{"header":{"parameterUnit":"m.s-1","parameterCategory":1,"la1":30.2991,"la2":30.254,"lo1":-89.0895,"lo2":-89.0444,"dx":0.0017,"dy":0.0017,"nx":28,"ny":28,"refTime":"2022-11-13T15:00:00:Z","depth":0,"parameterNumber":3,"parameterNumberName":"V-component_of_WINDS"},"data":[0,0,0,0,0,0,0,0,0,0,0,0,0,0,0,0,0,0,0,0,0,0,0,0,0,0,0,0,0,0,0,0,0,0,0,0,0,0,0,0,0,0,0,0,0,0,0,0,0,0,0,0,0,0,0,0,0,0,6.1875,6.1875,0,6.1846,6.1846,6.1846,6.1649,6.1644,6.1639,6.1634,6.1605,6.1609,6.1612,0,0,0,0,0,0,0,0,0,0,0,0,0,6.1762,6.1766,6.1876,6.1875,6.1875,6.1846,6.1846,6.1845,6.1649,6.1644,6.1638,6.1632,6.1604,6.1608,6.1613,0,0,0,0,0,0,0,0,0,0,0,0,0,6.178,6.1767,6.1876,6.1773,6.1764,6.1846,6.1846,6.1845,6.1651,6.1643,6.1636,6.1629,6.1602,6.1608,6.1613,6.1791,0,0,6.163,6.1633,0,0,0,0,0,0,0,0,6.178,6.1785,6.1789,6.1781,6.177,6.1744,6.1795,6.1827,6.1652,6.1694,6.1634,6.1626,6.1657,6.1658,6.1668,6.179,6.1789,6.1631,6.1634,6.1636,6.1638,0,0,0,0,0,0,0,6.1779,6.1785,6.1864,6.1789,6.1778,6.1729,6.1724,6.18,6.1716,6.169,6.1675,6.1674,6.165,6.1663,6.1666,6.1788,6.163,6.1635,6.1639,6.1641,6.2056,6.2063,0,0,0,0,0,0,6.1792,6.1785,6.1865,6.1863,6.1757,6.1737,6.1731,6.1759,6.1715,6.1701,6.1681,6.1665,6.1657,6.166,6.1664,6.1869,6.1636,6.1641,6.1645,6.2048,6.2058,6.2066,0,0,0,0,0,0,6.179,6.1801,6.1866,6.182,6.1825,6.1747,6.178,6.1763,6.1775,6.1708,6.1692,6.1709,6.1652,6.1656,6.1761,6.1866,6.1644,6.1649,6.2039,6.2051,6.2062,6.2283,0,0,0,0,0,0,6.1788,6.1801,6.1868,6.1823,6.1828,6.1964,6.1787,6.1767,6.1785,6.1765,6.173,6.1718,6.1646,6.1754,6.1767,6.1869,6.1653,6.2029,6.2044,6.2058,6.2266,6.2301,6.233,0,0,0,0,0,6.1784,6.1931,6.1872,6.1883,6.191,6.197,6.1973,6.1888,6.1794,6.1861,6.1818,6.1719,6.1853,6.1767,6.1779,6.1885,6.2022,6.204,6.2057,6.2251,6.2294,6.233,0,0,0,0,0,0,6.199,6.1923,6.1857,6.1994,6.199,6.1937,6.2018,6.1935,6.1957,6.1938,6.1831,6.1825,6.1946,6.1926,6.1831,6.2056,6.1921,6.1941,6.2064,6.2104,6.2135,6.2137,6.1658,0,0,0,0,0,6.2051,6.2106,6.2045,6.2172,6.2173,6.2097,6.212,6.2055,6.2046,6.2043,6.2007,6.2003,6.2043,6.2072,6.2106,6.2263,6.2252,6.2342,6.2374,6.2401,6.242,6.2501,6.254,6.2123,6.2123,6.2122,0,0,6.2178,6.2149,6.219,6.2212,6.2201,6.226,6.2096,6.2166,6.2209,6.2053,6.215,6.2125,6.2112,6.2244,6.23,6.2231,6.2533,6.2423,6.2445,6.2449,6.2523,6.2563,6.2598,6.2135,6.2132,6.2131,0,0,6.2439,6.2423,6.2527,6.2519,6.2505,6.2453,6.2479,6.2439,6.2416,6.2512,6.2397,6.2447,6.252,6.2516,6.2523,6.2786,6.2696,6.28,6.2968,6.3049,6.3082,6.3111,6.3204,6.3239,6.282,6.282,6.282,0,6.2599,6.2684,6.2591,6.2668,6.2682,6.2544,6.2649,6.2646,6.2644,6.2657,6.2579,6.2668,6.265,6.2779,6.2844,6.2854,6.288,6.2803,6.3085,6.3112,6.3138,6.3226,6.3262,6.2833,6.2831,6.283,6.2829,0,6.2881,6.2942,6.3027,6.3029,6.3052,6.3143,6.3064,6.3099,6.3033,6.299,6.309,6.3064,6.3091,6.3117,6.3053,6.3238,6.3195,6.3103,6.2965,6.3192,6.3273,6.3306,6.2851,6.2847,6.2843,6.284,0,0,6.3269,6.3219,6.3252,6.3252,6.3226,6.3271,6.3357,6.3383,6.3415,6.3419,6.3488,6.3553,6.3468,6.3477,6.3412,6.3483,6.3693,6.3382,6.338,6.3441,6.3896,6.3965,6.4006,6.3634,6.364,6.3645,6.3897,0,6.352,6.3662,6.3582,6.3736,6.3791,6.3663,6.3737,6.373,6.3693,6.3735,6.3693,6.3741,6.3625,6.363,6.3695,6.3654,6.3783,6.3635,6.3697,6.3701,6.3704,6.4048,6.4121,6.4361,6.3928,6.3933,6.3937,0,6.3832,6.3849,6.4009,6.3974,6.3994,6.4062,6.408,6.4122,6.4111,6.4079,6.4091,6.4008,6.409,6.3955,6.4067,6.3968,6.3989,6.3973,6.398,6.3982,6.3833,6.406,6.4435,6.4471,6.3986,6.3982,6.3979,0,6.4099,6.4163,6.4266,6.427,6.4232,6.4283,6.4269,6.4252,6.4273,6.4289,6.4302,6.4328,6.4342,6.4365,6.4292,6.42,6.4413,6.4272,6.4389,6.4392,6.4439,6.4437,6.4824,6.4455,6.4454,6.4453,6.4453,0,6.4388,6.4491,6.4386,6.445,6.4562,6.4469,6.4582,6.4555,6.4541,6.4598,6.4488,6.4544,6.4444,6.449,6.4434,6.4535,6.4543,6.4519,6.4503,6.4529,6.4532,6.4541,6.4523,6.4463,6.4461,6.4459,6.4457,0,6.4705,6.4639,6.4744,6.47,6.4691,6.4776,6.4737,6.4795,6.4751,6.4824,6.4836,6.4768,6.4816,6.4746,6.4787,6.4749,6.4889,6.4847,6.4893,6.488,6.5002,6.4992,6.5407,6.5457,6.5057,6.506,6.5064,0,6.4893,6.4969,6.4934,6.4964,6.4957,6.5007,6.5028,6.494,6.4967,6.4962,6.5021,6.506,6.5087,6.5171,6.5125,6.5156,6.5115,6.5258,6.5119,6.5143,6.5117,6.5114,6.5121,6.5287,6.5292,6.5296,6.5299,0,6.5235,6.5199,6.5233,6.5258,6.5287,6.5302,6.5309,6.534,6.5248,6.5284,6.5332,6.5353,6.5395,6.5436,6.5456,6.5442,6.5357,6.5343,6.5372,6.5399,6.5423,6.5412,6.497,6.5334,6.533,6.5328,6.5326,6.5324,6.5493,6.5555,6.554,6.5583,6.5579,6.5589,6.5641,6.5604,6.5643,6.567,6.5616,6.5678,6.5667,6.5684,6.5681,6.5729,6.5666,6.5708,6.5718,6.573,6.5749,6.5416,6.5732,6.5731,6.573,6.5729,6.5728,0,6.5829,6.5813,6.5854,6.5867,6.5902,6.5817,6.5821,6.5856,6.5912,6.5909,6.5938,6.5994,6.6034,6.5992,6.6023,6.607,6.6032,6.6081,6.6077,6.6076,6.5803,6.5775,6.6112,6.6112,6.6112,6.6112,6.6112,6.6112,6.6008,6.6108,6.6071,6.617,6.6152,6.6213,6.6223,6.6231,6.6228,6.6296,6.6328,6.63,6.6282,6.6312,6.6345,6.6331,6.6348,6.6413,6.6386,6.6132,6.6095,6.6059,6.6032,6.6417,6.6417,6.6654,6.6656,6.6658]}]]